Regional Weather Roundup
Issued by NWS Jackson, KY

Home | Current Version | Previous Version | Text Only | Print | Product List | Glossary Off
Versions: 1 2 3 4 5 6 7 8 9 10 11 12 13 14 15 16 17 18 19 20 21 22 23 24 25 26 27 28 29 30 31 32 33 34 35 36 37 38 39 40 41 42 43 44 45 46 47 48 49 50

000
ASUS43 KJKL 191611
RWRJKL

EAST KENTUCKY HOURLY WEATHER ROUNDUP
NATIONAL WEATHER SERVICE JACKSON KY
1100 AM EST FRI DEC 19 2014

NOTE: "FAIR" INDICATES FEW OR NO CLOUDS BELOW 12,000 FEET WITH
NO SIGNIFICANT WEATHER AND/OR OBSTRUCTIONS TO VISIBILITY.

* THESE REPORTS ARE NOT UNDER NWS QUALITY CONTROL AND MAY NOT
  REPORT WEATHER SUCH AS PRECIPITATION AND FOG.

KYZ079-080-083-085-087-088-110-112-115-119-120-191700
...EASTERN KENTUCKY...

CITY           SKY/WX    TMP DP  RH WIND       PRES   REMARKS
JACKSON        CLOUDY    32  23  69 CALM      30.24F
LONDON         SUNNY     35  25  66 N5        30.25R WCI  31
SOMERSET*      SUNNY     32  27  80 NE5       30.27F WCI  27
MONTICELLO*    MOSUNNY   35  28  76 CALM      30.29R HAZE
MIDDLESBORO*   SUNNY     38  27  62 NW3       30.24S
HARLAN APT*    CLOUDY    36  27  69 S5        30.21S WCI  32
HAZARD APT*    MOSUNNY   36  27  69 CALM      30.24
BLACK MTN*       N/A     28  21  74 NW2         N/A
PIKEVILLE APT* CLOUDY    30  23  74 CALM      30.24S
BIG SANDY*     CLOUDY    31  24  75 CALM      30.26R
MOREHEAD APT*  CLOUDY    28  21  74 CALM      30.31R
$$

KYZ035-036-041-042-044-050-067-078-099-191700
...CENTRAL KENTUCKY...

CITY           SKY/WX    TMP DP  RH WIND       PRES   REMARKS
MT STERLING*   CLOUDY    30  23  74 NE3       30.30R
FLEMING/MASON* CLOUDY    27  21  80 NE3       30.31R
DANVILLE*      MOSUNNY   32  27  80 NE3       30.28F
RICHMOND*      MOSUNNY   32  23  69 E3        30.26F
LEXINGTON      CLOUDY    30  23  75 N7        30.28S WCI  23
FRANKFORT      PTSUNNY   29  22  75 NE7       30.29S WCI  22
$$

KYZ091>093-OHZ055-061-077-WVZ005-015-034-035-042-191700
...SOUTHERN OHIO/WEST VIRGINIA...

CITY           SKY/WX    TMP DP  RH WIND       PRES   REMARKS
COVINGTON      CLOUDY    29  18  63 NE6       30.29S WCI  23
COLUMBUS       CLOUDY    29  22  75 NW3       30.28S
DAYTON         CLOUDY    29  22  75 W5        30.29S WCI  24
WILMINGTON     CLOUDY    29  20  69 CALM      30.27S
HUNTINGTON     CLOUDY    30  22  72 CALM      30.28S
CHARLESTON     CLOUDY    30  22  72 NW3       30.27F
PINEVILLE*     CLOUDY    33  27  81 MISG      30.26S
BECKLEY        CLOUDY    27  20  75 CALM      30.17S
BLUEFIELD      PTSUNNY   31  22  69 VRB7      30.15F WCI  24
$$

VAZ002-007-008-TNZ017-027-036-066-071-191700
...SOUTHWEST VIRGINIA/EAST TENNESSEE...

CITY           SKY/WX    TMP DP  RH WIND       PRES   REMARKS
WISE*          MOSUNNY   34  27  75 CALM      30.17S
JONESVILLE*    SUNNY     39  23  52 CALM      30.23S
ABINGDON*      CLOUDY    39  24  53 W3        30.18S
BRISTOL        MOSUNNY   42  24  49 CALM      30.20S
KNOXVILLE      CLOUDY    41  26  55 N7        30.21S
OAK RIDGE      PTSUNNY   42  25  50 CALM      30.24S
CROSSVILLE     PTSUNNY   34  26  72 N6        30.21F WCI  29
NASHVILLE      CLOUDY    37  28  70 N6        30.29R WCI  32
$$

...KEY TO REMARKS...
VSB - VISIBILITY IN MILES
WCI - WIND CHILL INDEX
HX  - HEAT INDEX

$$



USA.gov is the U.S. government's official web portal to all federal, state and local government web resources and services.